DW6376 Weather Reports


Display with metric or nautical units.
time (UTC)temp
F
wind
direction
speed
MPH
gust
MPH
rain 1hr
in
rain 24hr
in
rain mn
in
humidity
%
barometer
mb
20260505024528 63 328 0.0 0.0 0.00 0.00 0.00 39 1004.5
20260505023028 63 328 0.0 0.0 0.00 0.00 0.00 41 1004.2
20260505021532 64 10 0.0 0.0 0.00 0.00 0.00 41 1004.2
20260505020031 64 10 0.0 0.0 0.00 0.00 0.00 39 1003.9
20260505014527 65 295 0.0 0.0 0.00 0.00 0.00 40 1004.0
20260505013029 65 295 0.0 0.0 0.00 0.00 0.00 38 1003.9
20260505011532 66 295 0.0 0.0 0.00 0.00 0.00 37 1004.0
20260505010033 67 295 0.0 0.0 0.00 0.00 0.00 36 1004.0
20260505004512 68 294 0.0 0.0 0.00 0.00 0.00 34 1004.2
20260505003012 69 290 0.0 0.0 0.00 0.00 0.00 33 1004.1
20260505001511 69 290 0.0 0.0 0.00 0.00 0.00 33 1004.1
20260505000014 69 290 0.0 0.0 0.00 0.00 0.00 32 1004.1
20260504234510 71 290 0.0 0.0 0.00 0.00 0.00 32 1004.0
20260504233010 72 290 0.0 0.0 0.00 0.00 0.00 31 1003.8
20260504231508 72 290 0.0 0.0 0.00 0.00 0.00 30 1003.9
20260504230007 73 302 0.0 0.0 0.00 0.00 0.00 30 1004.0
20260504224553 73 286 0.0 0.0 0.00 0.00 0.00 30 1004.2
20260504223100 73 313 0.0 0.0 0.00 0.00 0.00 29 1004.4
20260504221602 73 331 0.0 0.0 0.00 0.00 0.00 29 1004.5
20260504220049 74 360 0.0 0.0 0.00 0.00 0.00 29 1004.6
20260504214558 74 17 1.0 0.0 0.00 0.00 0.00 26 1004.7
20260504213100 74 57 1.0 0.0 0.00 0.00 0.00 27 1004.6
20260504211550 74 61 0.0 0.0 0.00 0.00 0.00 26 1004.4
20260504210047 75 63 1.0 0.0 0.00 0.00 0.00 26 1004.5
20260504204543 74 52 1.0 0.0 0.00 0.00 0.00 26 1004.6
20260504203043 73 50 0.0 0.0 0.00 0.00 0.00 25 1004.7
20260504201528 73 51 1.0 0.0 0.00 0.00 0.00 25 1004.8
20260504200026 73 55 1.0 0.0 0.00 0.00 0.00 28 1005.0
20260504194530 72 55 0.0 0.0 0.00 0.00 0.00 27 1005.2
20260504193020 72 46 0.0 0.0 0.00 0.00 0.00 31 1005.4
20260504191527 71 38 1.0 0.0 0.00 0.00 0.00 31 1005.5
20260504190014 70 38 0.0 0.0 0.00 0.00 0.00 30 1005.9
20260504184516 69 38 0.0 0.0 0.00 0.00 0.00 31 1006.2
20260504183051 68 38 0.0 0.0 0.00 0.00 0.00 31 1006.3
20260504181551 68 38 1.0 0.0 0.00 0.00 0.00 32 1006.5
20260504180044 67 33 0.0 0.0 0.00 0.00 0.00 32 1006.7
20260504174535 67 33 0.0 0.0 0.00 0.00 0.00 33 1006.9
20260504173034 66 30 0.0 0.0 0.00 0.00 0.00 37 1007.1
20260504171532 65 30 0.0 0.0 0.00 0.00 0.00 34 1007.2
20260504081528 53 30 0.0 0.0 0.00 0.00 0.00 42 1008.8
20260504044548 58 30 0.0 0.0 0.00 0.00 0.01 33 1008.5
20260504043048 59 30 0.0 0.0 0.00 0.00 0.01 33 1008.6
20260504041547 60 30 0.0 0.0 0.00 0.00 0.01 31 1008.5
20260504040110 61 30 0.0 0.0 0.00 0.00 0.01 29 1008.4
20260504034547 62 30 0.0 0.0 0.00 0.00 0.01 28 1008.4
20260504033035 63 30 0.0 0.0 0.00 0.00 0.01 26 1008.2
20260504031536 63 30 0.0 0.0 0.00 0.00 0.01 27 1008.1
20260504030033 64 30 0.0 0.0 0.00 0.00 0.01 24 1008.1